Regional Weather Roundup
Issued by NWS Little Rock, AR

Home | Current Version | Previous Version | Graphics & Text | Print | Product List | Glossary On
Versions: 1 2 3 4 5 6 7 8 9 10 11 12 13 14 15 16 17 18 19 20 21 22 23 24 25 26 27 28 29 30 31 32 33 34 35 36 37 38 39 40 41 42 43 44 45 46 47 48 49 50
027
ASUS44 KLZK 151505
RWRLZK

WEATHER ROUNDUP FOR ARKANSAS
NATIONAL WEATHER SERVICE LITTLE ROCK AR
900 AM CST FRI DEC 15 2017

NOTE: "FAIR" INDICATES FEW OR NO CLOUDS BELOW 12,000 FEET WITH NO
SIGNIFICANT WEATHER AND/OR OBSTRUCTIONS TO VISIBILITY.

ARZ001-003-010-029-151600-
NORTHWEST ARKANSAS

CITY           SKY/WX    TMP DP  RH WIND       PRES   REMARKS
FAYETTEVILLE   PTSUNNY   35  31  85 SW5       30.22R WCI  31
FORT SMITH     SUNNY     35  29  78 W9        30.25S WCI  28
HARRISON       CLOUDY    37  28  70 W9        30.18R
BENTONVILLE    SUNNY     34  29  82 W3        30.22R
ROGERS         SUNNY     35  30  82 W7        30.20F WCI  29
SILOAM SPGS    MOSUNNY   34  30  85 W5        30.22S WCI  30
HIGHFILL       SUNNY     34  30  85 SW5       30.21R WCI  30
SPRINGDALE     SUNNY     36  30  80 W7        30.22R
$$

ARZ004-005-016-151600-
NORTH CENTRAL ARKANSAS

CITY           SKY/WX    TMP DP  RH WIND       PRES   REMARKS
BATESVILLE     SUNNY     34  27  75 CALM      30.22R
FLIPPIN        CLOUDY    34  26  72 CALM      30.21R
MTN HOME       PTSUNNY   36  28  73 W5        30.18R
$$

ARZ040-041-151600-
WEST CENTRAL ARKANSAS

CITY           SKY/WX    TMP DP  RH WIND       PRES   REMARKS
MENA           MOSUNNY   36  34  93 W3        30.23S
MOUNT IDA      SUNNY     31  27  85 CALM      30.22R
$$

ARZ009-017-025-026-028-151600-
NORTHEAST ARKANSAS

CITY           SKY/WX    TMP DP  RH WIND       PRES   REMARKS
JONESBORO      SUNNY     34  27  75 SW5       30.23R WCI  30
NEWPORT        SUNNY     32  28  85 S5        30.25R WCI  27
WALNUT RIDGE   SUNNY     34  27  75 SW5       30.22R WCI  30
BLYTHEVILLE    CLOUDY    33  28  81 SW6       30.23S WCI  28
NW BLYTHEVILLE PTSUNNY   34  28  80 SW5       30.23R WCI  30
$$

ARZ022-023-033-042-044-151600-
CENTRAL ARKANSAS

CITY           SKY/WX    TMP DP  RH WIND       PRES   REMARKS
LITTLE ROCK    PTSUNNY   35  28  75 W5        30.26R WCI  31
N LITTLE ROCK    N/A     38  30  71 CALM      30.28R
JACKSONVILLE   MOSUNNY   35  28  76 W3        30.24R
SEARCY         MOSUNNY   31  31 100 CALM      30.25R
HOT SPRINGS    SUNNY     34  29  82 NW3       30.25R
RUSSELLVILLE   SUNNY     32  29  88 CALM      30.24R
CLINTON        FAIR      28  25  86 CALM      30.24R
$$

ARZ036-151600-
EAST ARKANSAS

CITY           SKY/WX    TMP DP  RH WIND       PRES   REMARKS
WEST MEMPHIS   MOSUNNY   30  29  96 S3        30.24R FOG
$$

ARZ050-053-066-070-073-151600-
SOUTHWEST ARKANSAS

CITY           SKY/WX    TMP DP  RH WIND       PRES   REMARKS
ARKADELPHIA    FAIR      29  28  96 CALM      30.28R
CAMDEN         CLOUDY    34  28  80 CALM      30.27S
TEXARKANA      CLOUDY    35  30  82 SW3       30.26S
EL DORADO      CLOUDY    38  31  76 NW3       30.28R
DE QUEEN       MOSUNNY   28  27  96 CALM      30.25S
$$

ARZ056-057-069-151600-
SOUTHEAST ARKANSAS

CITY           SKY/WX    TMP DP  RH WIND       PRES   REMARKS
PINE BLUFF     SUNNY     33  27  78 CALM      30.27R
STUTTGART      SUNNY     32  29  88 W3        30.27R
MONTICELLO     CLOUDY    36  27  69 NW5       30.26R

$$






USA.gov is the U.S. government's official web portal to all federal, state and local government web resources and services.